Flag for U.S.A. Weather past 2 weeks in Seattle, Washington, U.S.A.

Now
80 °F

Sunny.


Feels Like: 80 °F
Forecast: 62 / 82 °F
Wind: 7 mph from Northwest

Location: Seattle Boeing Field

Current Time: Jul 29, 2014 at 12:49:46 PM

Latest Report: Jul 29, 2014 at 11:53 AM


Visibility: 10 mi

Pressure: 30.12 "Hg

Humidity: 38%

Dew point: 52 °F

Location of SeattleLocation

Historic Weather in Seattle — Graph

°F

Seattle temperature yesterday

Maximum temperature yesterday: 87 °F (at 4:53 PM)
Minimum temperature yesterday: 62 °F (at 5:53 AM)
Average temperature yesterday: 74 °F

Past Weeks' High & Low Weather Summary

 TemperatureHumidityPressure
High89 °F (Jul 16, 4:53 PM)87% (Jul 23, 7:53 AM)30.21 "Hg (Jul 23, 7:53 AM)
Low57 °F (Jul 18, 5:53 AM)25% (Jul 28, 4:53 PM)29.89 "Hg (Jul 16, 7:53 PM)
Average69 °F61%30.06 "Hg
* Reported Jul 14 10:53 AM — Jul 29 10:53 AM, Seattle, Weather by CustomWeather, © 2014

Note: Actual official high and low records may vary slightly from our data, if they occured in-between our weather recording intervals... More about our weather records

Advertising

Seattle weather history for previous 24 hours

 ConditionsComfort  
Time TempWeatherWind HumidityBarometerVisibility
10:53 AM
Jul 29
78 °FSunny.5 mph42%30.13 "Hg10 mi
9:53 AM76 °FSunny.No wind48%30.14 "Hg10 mi
8:53 AM72 °FSunny.No wind55%30.14 "Hg10 mi
7:53 AM68 °FSunny.No wind63%30.13 "Hg10 mi
6:53 AM64 °FSunny.No wind68%30.12 "Hg10 mi
5:53 AM63 °FClear.No wind70%30.11 "Hg10 mi
4:53 AM64 °FClear.No wind68%30.10 "Hg10 mi
3:53 AM65 °FClear.No wind63%30.09 "Hg10 mi
2:53 AM67 °FClear.No wind59%30.08 "Hg10 mi
1:53 AM69 °FClear.No wind57%30.08 "Hg10 mi
12:53 AM71 °FClear.No wind51%30.08 "Hg10 mi
11:53 PM
Jul 28
72 °FClear.No wind48%30.08 "Hg10 mi
10:53 PM74 °FClear.No wind46%30.08 "Hg10 mi
9:53 PM77 °FClear.3 mph45%30.07 "Hg10 mi
8:53 PM76 °FSunny.5 mph45%30.06 "Hg10 mi
7:53 PM82 °FSunny.7 mph35%30.04 "Hg10 mi
6:53 PM84 °FSunny.7 mph32%30.04 "Hg10 mi
5:53 PM86 °FSunny.9 mph27%30.05 "Hg10 mi
4:53 PM87 °FSunny.10 mph25%30.06 "Hg10 mi
3:53 PM86 °FSunny.9 mph29%30.08 "Hg10 mi
2:53 PM84 °FSunny.9 mph33%30.09 "Hg10 mi
1:53 PM82 °FSunny.9 mph34%30.09 "Hg10 mi
12:53 PM80 °FSunny.6 mph39%30.09 "Hg10 mi
Weather by CustomWeather, © 2014

See weather overviewHow to use our weather pages